Location: Spring Creek
(38.2870°N, 100.2160°W)
Time: 15:33:28
(UTC+00:00)

Meteor 2-15 - Pass Details

Date: 30 September 2021
Orbit: 937 x 954 km, 82.5° (Epoch: 18 October)

Event Time Altitude Azimuth Distance (km) Brightness Sun altitude
Exits shadow 08:57:19 21° 14° (NNE) 1,995 6.4 -41.4°
Drops below altitude 10° 08:59:11 10° 12° (NNE) 2,676 7.2 -41.1°
Sets 09:01:42 0° 10° (N) 3,627 8.0 -40.7°
